INTELSAT 902 (IS-902) 1 26900U 01039A 26149.14835751 -.00000275 00000+0 00000+0 0 9999 2 26900 6.0705 72.0116 0004196 351.0845 186.8919 1.00271836 90504 INTELSAT 904 (IS-904) 1 27380U 02007A 26149.40769520 -.00000218 00000+0 00000+0 0 9994 2 27380 6.8749 69.4085 0007406 354.0864 298.7315 1.00272404 51578 DIRECTV 5 (TEMPO 1) 1 27426U 02023A 26149.57858432 -.00000048 00000+0 00000+0 0 9993 2 27426 4.8319 75.5398 0003544 355.0917 274.6679 1.00272844 87937 INTELSAT 905 (IS-905) 1 27438U 02027A 26149.52961539 .00000101 00000+0 00000+0 0 9997 2 27438 6.7085 70.0235 0004271 5.3934 225.0888 1.00272217 51176 GALAXY 3C (G-3C) 1 27445U 02030A 26149.42033019 -.00000143 00000+0 00000+0 0 9998 2 27445 3.6834 78.2270 0001974 25.5777 199.6064 1.00271902 46308 INTELSAT 906 (IS-906) 1 27513U 02041A 26149.32406054 .00000021 00000+0 00000+0 0 9992 2 27513 5.7561 73.1499 0004587 351.3449 3.1668 1.00272365 86835 GALAXY 13 (HORIZONS-1) 1 27954U 03044A 26149.44435457 .00000143 00000+0 00000+0 0 9992 2 27954 1.3715 84.0829 0002029 333.7015 199.1757 1.00268170 46387 INTELSAT 10-02 1 28358U 04022A 26149.57598149 .00000000 00000+0 00000+0 0 9992 2 28358 0.0260 37.1832 0000287 44.3623 11.9111 1.00269578 80379 DIRECTV 8 1 28659U 05019A 26149.51606501 .00000012 00000+0 00000+0 0 9992 2 28659 0.0220 54.4353 0003326 20.7503 238.5933 1.00271650 76885 GALAXY 28 (G-28) 1 28702U 05022A 26149.42836251 -.00000191 00000+0 00000+0 0 9991 2 28702 3.2520 79.1622 0003129 342.0165 312.8835 1.00266390 51784 GALAXY 16 (G-16) 1 29236U 06023A 26149.57464692 -.00000115 00000+0 00000+0 0 9994 2 29236 0.0173 137.5036 0003032 294.8259 282.6469 1.00270324 72787 DIRECTV 9S 1 29494U 06043A 26149.57595992 -.00000103 00000+0 00000+0 0 9997 2 29494 2.3742 81.1224 0005132 358.0369 274.0976 1.00272267 51199 GALAXY 17 (G-17) 1 31307U 07016B 26149.55942808 -.00000196 00000+0 00000+0 0 9996 2 31307 2.9267 80.1309 0004847 5.9901 277.3667 1.00272228 69614 INTELSAT 11 (IS-11) 1 32253U 07044B 26149.55069161 .00000019 00000+0 00000+0 0 9993 2 32253 3.5184 78.8910 0001172 69.6140 144.4787 0.99051058 68262 HORIZONS-2 1 32388U 07063B 26149.56168142 -.00000243 00000+0 00000+0 0 9993 2 32388 2.5556 80.8515 0004122 348.8338 305.8337 1.00271542 67624 DIRECTV 11 1 32729U 08013A 26149.48532120 -.00000115 00000+0 00000+0 0 9998 2 32729 0.0176 134.1507 0000357 252.8729 295.5171 1.00271877 45406 GALAXY 18 (G-18) 1 32951U 08024A 26149.57847936 .00000036 00000+0 00000+0 0 9992 2 32951 0.0466 111.5146 0003233 319.6114 261.2384 1.00271134 45669 INTELSAT 25 (IS-25) 1 33153U 08034A 26149.55300436 .00000003 00000+0 00000+0 0 9999 2 33153 2.6618 80.5313 0001947 20.0756 190.4851 0.99034489 65501 GALAXY 19 (G-19) 1 33376U 08045A 26149.57395848 -.00000128 00000+0 00000+0 0 9990 2 33376 0.0474 114.8287 0003269 324.1813 277.7255 1.00272440 64715 FM-5 1 35493U 09034A 26149.41666245 -.00000189 00000+0 00000+0 0 9993 2 35493 0.0158 317.8279 0000324 320.8825 32.0736 1.00270028 46454 INTELSAT 14 (IS-14) 1 36097U 09064A 26149.42480917 -.00000263 00000+0 00000+0 0 9991 2 36097 0.0169 350.6585 0002719 87.4504 276.7870 1.00271786 60412 INTELSAT 15 (IS-15) 1 36106U 09067A 26149.52189470 -.00000174 00000+0 00000+0 0 9997 2 36106 0.0160 322.8425 0002463 104.5515 92.6876 1.00272307 41046 DIRECTV 12 1 36131U 09075A 26149.57603659 -.00000092 00000+0 00000+0 0 9998 2 36131 0.0319 124.6257 0000269 260.2911 326.8282 1.00272546 46361 INTELSAT 16 (IS-16) 1 36397U 10006A 26149.56116142 -.00000233 00000+0 00000+0 0 9990 2 36397 0.0104 308.3316 0002958 152.0394 272.5400 1.00272063 59462 XM-5 1 37185U 10053A 26149.39535594 -.00000012 00000+0 00000+0 0 9990 2 37185 0.0605 274.6142 0003259 273.3117 86.1322 1.00273175 57297 INTELSAT 17 (IS-17) 1 37238U 10065B 26149.51808135 .00000010 00000+0 00000+0 0 9997 2 37238 0.0041 142.9408 0002406 282.7029 73.9170 1.00270673 53067 INTELSAT 28 (IS-28) 1 37392U 11016A 26149.42740918 -.00000214 00000+0 00000+0 0 9996 2 37392 1.7591 82.8471 0003991 345.4402 300.8396 1.00272589 53093 INTELSAT 18 (IS-18) 1 37834U 11056A 26149.60331549 .00000064 00000+0 00000+0 0 9999 2 37834 0.0177 314.6876 0002181 121.2667 208.3747 1.00272382 53626 INTELSAT 22 (IS-22) 1 38098U 12011A 26149.51929470 .00000000 00000+0 00000+0 0 9990 2 38098 0.0277 36.1744 0002154 44.9630 64.9397 1.00270643 7007 INTELSAT 19 (IS-19) 1 38356U 12030A 26149.59778889 -.00000045 00000+0 00000+0 0 9992 2 38356 0.0173 342.9418 0003241 88.5585 196.8355 1.00271087 50264 INTELSAT 20 (IS-20) 1 38740U 12043A 26149.44725594 -.00000014 00000+0 00000+0 0 9998 2 38740 0.0080 94.7941 0001585 88.0494 293.6559 1.00272928 50564 INTELSAT 21 (IS-21) 1 38749U 12045A 26149.56480144 -.00000274 00000+0 00000+0 0 9999 2 38749 0.0195 43.9156 0002082 29.9709 318.5385 1.00272540 50339 INTELSAT 23 (IS-23) 1 38867U 12057A 26149.49442125 -.00000274 00000+0 00000+0 0 9992 2 38867 0.0104 306.2967 0000344 209.5446 216.1628 1.00269116 49761 FM-6 1 39360U 13058A 26149.51745130 -.00000004 00000+0 00000+0 0 9999 2 39360 0.0075 39.0984 0002072 104.2781 173.6469 1.00265715 45880 INTELSAT 30 (IS-30) 1 40271U 14062A 26149.57325949 -.00000140 00000+0 00000+0 0 9997 2 40271 0.0338 55.6309 0001254 348.3967 314.3955 1.00272694 6603 DIRECTV 14 1 40333U 14078B 26149.57534652 -.00000114 00000+0 00000+0 0 9997 2 40333 0.0112 320.7824 0000225 208.6194 185.5950 1.00270931 41858 DIRECTV 15 1 40663U 15026A 26149.48462787 .00000000 00000+0 00000+0 0 9999 2 40663 0.0213 344.5513 0000406 150.2026 183.8405 1.00270658 40279 SKY MEXICO-1 1 40664U 15026B 26149.56064141 -.00000223 00000+0 00000+0 0 9999 2 40664 0.0173 317.3048 0002261 123.8374 288.9722 1.00272729 40268 INTELSAT 34 (IS-34) 1 40874U 15039A 26149.06387966 -.00000275 00000+0 00000+0 0 9991 2 40874 0.0104 319.1463 0000353 52.5399 202.4150 1.00270502 39442 INTELSAT 31 (IS-31) 1 41581U 16035A 26148.84448253 -.00000141 00000+0 00000+0 0 9998 2 41581 0.0155 276.5063 0000850 332.2331 206.6149 1.00272220 36497 INTELSAT 36 (IS-36) 1 41747U 16053A 26149.51860135 -.00000013 00000+0 00000+0 0 9992 2 41747 0.0133 357.4874 0001592 349.2124 155.5509 1.00270343 35774 INTELSAT 32E (IS-32E) 1 41945U 17007B 26148.85481935 -.00000259 00000+0 00000+0 0 9997 2 41945 0.0192 354.5883 0000361 6.8407 149.5159 1.00271131 34038 INTELSAT 35E (IS-35E) 1 42818U 17041A 26149.49814793 -.00000227 00000+0 00000+0 0 9993 2 42818 0.0160 359.2560 0002279 66.5402 326.0830 1.00271594 32629 INTELSAT 37E (IS-37E) 1 42950U 17059A 26149.43009586 -.00000130 00000+0 00000+0 0 9992 2 42950 0.0188 3.7515 0002646 79.6639 300.3841 1.00271495 31875 AZERSPACE 2 (IS-38) 1 43632U 18074A 26149.51392134 .00000000 00000+0 00000+0 0 9996 2 43632 0.0245 324.7877 0001659 112.0829 40.2880 1.00270523 28263 HORIZONS-3E 1 43633U 18074B 26148.32642846 -.00000022 00000+0 00000+0 0 9998 2 43633 0.0059 111.5592 0000631 170.4548 250.3605 1.00272554 28140 AT&T T-16 1 44333U 19034A 26148.48692262 -.00000106 00000+0 00000+0 0 9990 2 44333 0.0440 106.1524 0000382 145.4006 68.9112 1.00272273 25434 INTELSAT 39 (IS-39) 1 44476U 19049B 26149.51730135 .00000045 00000+0 00000+0 0 9992 2 44476 0.0179 319.0547 0000576 13.3499 162.8231 1.00270959 24945 GALAXY 30 (G-30) 1 46114U 20056C 26148.43788892 .00000046 00000+0 00000+0 0 9997 2 46114 0.0026 346.4653 0002491 78.3859 213.7667 1.00270341 21095 GALAXY 33 (G-33) 1 54026U 22128A 26147.93447655 .00000086 00000+0 00000+0 0 9997 2 54026 0.0077 309.8424 0002023 121.4478 17.6264 1.00274262 13540 GALAXY 34 (G-34) 1 54027U 22128B 26148.40997655 .00000000 00000+0 00000+0 0 9997 2 54027 0.0203 320.3920 0001908 110.0329 194.1202 1.00270130 13713 GALAXY 31 (G-31) 1 54243U 22153A 26148.98196574 .00000023 00000+0 00000+0 0 9994 2 54243 0.0031 224.7154 0001561 206.8564 47.4679 1.00273590 6946 GALAXY 32 (G-32) 1 54244U 22153B 26149.48696788 -.00000163 00000+0 00000+0 0 9999 2 54244 0.0124 9.8496 0002549 24.4256 297.0541 1.00271845 12950 GALAXY 35 (G-35) 1 54741U 22170A 26149.57255882 -.00000151 00000+0 00000+0 0 9993 2 54741 0.0173 295.7976 0002306 135.2998 289.0240 1.00272137 12705 GALAXY 36 (G-36) 1 54742U 22170B 26149.55864808 -.00000174 00000+0 00000+0 0 9991 2 54742 0.0056 70.8754 0002880 4.4917 283.8358 1.00272039 12586 GALAXY 37 (G-37) 1 57493U 23112A 26148.31642133 .00000056 00000+0 00000+0 0 9990 2 57493 0.0166 358.9082 0002116 62.2019 171.6729 1.00272907 10347